User: anonymous   Login
Location: Holiday Acres Laynes 2 Mobile Home Park
(26.7249°N, 81.8671°W)
Time: 04:48:52
(UTC+00:00)
Language:

JILIN-01-05 - Orbit

View from above orbital plane
View from above orbital plane
View from above satellite
View from above satellite

Ground track
Ground track

The orbit data is extracted from the following two-line orbital elements,

1 43023U 17074B   21165.86088736  .00000760  00000-0  50260-4 0  9992
2 43023  97.5217 259.3138 0009837 117.5877 359.4363 15.10256669196391
Epoch (UTC): 14 June 2021 20:39:40
Eccentricity: 0.0009837
inclination: 97.5217°
perigee height: 528 km
apogee height: 542 km
right ascension of ascending node: 259.3138°
argument of perigee: 117.5877°
revolutions per day: 15.10256669
mean anomaly at epoch: 359.4363°
orbit number at epoch: 19639

The dashed part of the orbit path shows where the satellite is in the earth's shadow,  

DLR